Date,TemperatureHighF,TemperatureAvgF,TemperatureLowF,DewpointHighF,DewpointAvgF,DewpointLowF,HumidityHigh,HumidityAvg,HumidityLow,PressureMaxIn,PressureMinIn,WindSpeedMaxMPH,WindSpeedAvgMPH,GustSpeedMaxMPH,PrecipitationSumIn
2013-1-1,48.7,45.4,40.2,47.6,41.3,24.4,96,86,48,30.23,29.89,3,1,6,0.60
2013-1-2,49.6,45.4,41.6,44.7,40.9,34.3,95,85,57,30.10,29.84,4,0,11,0.05
2013-1-3,47.5,41.1,31.7,41.1,34.1,17.3,95,78,47,30.39,30.05,5,0,11,0.00
2013-1-4,48.6,34.9,28.3,26.5,21.3,14.1,77,59,33,30.56,30.36,5,2,13,0.00
2013-1-5,45.3,37.1,28.6,34.4,23.2,17.5,91,59,37,30.56,30.34,6,1,12,0.03
2013-1-6,51.5,42.1,35.1,38.8,32.9,27.3,90,71,43,30.36,30.10,4,1,10,0.00
2013-1-7,50.4,39.5,30.5,28.0,26.2,21.3,83,61,34,30.54,30.28,5,1,9,0.00
2013-1-8,49.6,41.6,33.2,41.8,33.1,26.9,84,72,60,30.57,30.46,2,0,4,0.00
2013-1-9,60.2,53.3,44.8,53.6,49.0,40.0,95,86,74,30.50,30.36,1,0,3,0.00
2013-1-10,62.1,56.3,51.1,51.8,49.5,46.8,94,79,64,30.41,30.20,4,1,9,0.06
2013-1-11,57.4,55.2,53.1,56.6,54.3,51.4,97,96,94,30.20,29.99,4,0,8,0.96
2013-1-12,67.6,60.8,57.2,61.8,58.3,55.9,98,92,70,30.04,29.88,2,0,7,0.03
2013-1-13,62.8,58.9,56.8,58.7,57.0,55.1,97,93,84,29.95,29.85,4,1,8,0.14
2013-1-14,61.2,59.6,57.3,60.3,58.5,55.6,98,96,92,29.92,29.83,4,1,10,1.05
2013-1-15,57.3,55.6,51.6,56.2,54.8,50.8,98,97,94,29.91,29.80,2,0,5,1.86
2013-1-16,55.0,52.1,49.7,54.4,51.5,48.9,98,98,97,29.89,29.77,2,0,4,0.56
2013-1-17,52.9,47.8,34.2,52.0,46.3,29.6,98,94,77,30.18,29.47,6,1,17,1.79
2013-1-18,49.6,37.3,28.4,32.7,27.1,18.2,93,70,32,30.66,30.18,3,1,8,0.00
2013-1-19,50.5,38.1,28.5,31.6,27.8,24.8,90,69,38,30.64,30.33,3,1,7,0.00
2013-1-20,59.8,44.6,35.4,35.6,28.5,21.5,74,54,33,30.33,30.08,6,2,15,0.00
2013-1-21,53.1,40.9,31.9,30.5,24.1,12.9,81,53,35,30.13,29.99,6,3,15,0.00
2013-1-22,40.7,31.0,24.4,13.7,8.3,4.6,48,39,23,30.47,30.10,3,2,9,0.00
2013-1-23,45.9,34.1,23.8,29.1,19.8,6.9,69,56,41,30.56,30.27,3,1,17,0.00
2013-1-24,48.6,41.4,27.0,34.0,17.0,-3.1,70,43,12,30.54,30.12,6,2,14,0.00
2013-1-25,37.8,25.8,21.4,36.8,16.6,3.5,96,71,40,30.58,30.37,3,0,9,0.00
2013-1-26,53.2,40.2,32.8,37.4,29.1,17.5,96,69,26,30.44,30.32,6,1,14,0.15
2013-1-27,44.7,37.4,30.5,32.2,29.3,25.6,87,73,60,30.66,30.41,3,1,7,0.00
2013-1-28,51.9,43.7,36.4,48.3,38.9,28.9,95,83,68,30.63,30.33,1,0,3,0.00
2013-1-29,61.2,54.6,43.3,56.7,51.7,41.1,96,90,81,30.34,29.86,2,0,6,0.11
2013-1-30,60.7,54.9,41.7,59.9,53.6,38.1,98,95,87,29.86,29.21,7,2,16,1.92
2013-1-31,41.1,34.6,29.0,37.2,23.6,18.5,91,65,42,30.23,29.41,6,2,25,0.04
2013-2-1,40.6,31.9,22.7,28.6,10.3,-3.6,74,42,19,30.57,30.12,5,2,18,0.00
2013-2-2,36.2,28.4,21.2,30.8,17.7,4.1,95,68,28,30.62,30.28,5,1,9,0.02
2013-2-3,43.0,35.5,29.2,34.1,27.6,23.4,95,74,51,30.28,30.05,5,2,12,0.27
2013-2-4,45.9,36.1,27.4,29.2,23.3,17.8,78,61,35,30.29,30.12,3,1,7,0.02
2013-2-5,54.1,42.4,34.4,41.4,33.6,25.1,87,71,52,30.12,29.98,3,1,8,0.00
2013-2-6,62.3,47.5,35.3,38.9,30.2,21.2,90,57,22,30.23,30.03,3,1,7,0.00
2013-2-7,51.8,46.7,42.4,42.8,34.7,24.5,94,67,35,30.19,29.89,4,2,11,0.20
2013-2-8,50.4,44.3,37.5,45.4,38.3,25.6,96,81,51,30.14,29.86,5,1,19,0.00
2013-2-9,56.8,42.4,29.2,29.2,23.7,15.6,82,51,21,30.41,30.13,3,1,7,0.00
2013-2-10,49.2,44.7,40.7,45.5,29.9,21.6,95,59,37,30.44,30.16,5,1,13,0.90
2013-2-11,55.0,49.3,44.0,52.1,44.2,31.1,97,84,51,30.17,29.95,4,1,10,0.32
2013-2-12,56.2,46.7,40.0,42.3,29.7,14.9,93,56,20,30.06,29.82,6,1,17,0.15
2013-2-13,48.5,40.7,36.3,43.0,36.3,29.0,96,85,69,29.91,29.63,4,1,15,0.06
2013-2-14,51.9,39.6,31.9,33.0,28.9,24.9,81,67,35,30.12,29.90,5,2,15,0.00
2013-2-15,57.0,43.6,34.3,38.9,31.2,27.4,85,65,35,30.17,29.96,4,1,14,0.02
2013-2-16,39.0,32.5,23.8,31.3,19.9,6.9,77,60,35,30.18,29.86,5,2,19,0.00
2013-2-17,39.6,28.8,21.6,16.9,7.7,-0.2,67,42,22,30.53,30.17,5,2,24,0.00
2013-2-18,51.5,37.1,25.9,26.8,19.9,14.2,69,52,31,30.61,30.33,5,1,10,0.00
2013-2-19,50.4,38.9,29.7,41.9,27.0,10.7,95,66,30,30.33,29.95,4,1,17,0.01
2013-2-20,50.7,38.9,28.8,20.3,5.6,-5.7,68,28,10,30.23,30.13,4,2,12,0.00
2013-2-21,55.7,42.2,30.3,36.8,17.3,6.6,89,40,19,30.30,30.10,5,1,10,0.36
2013-2-22,40.5,37.6,34.7,38.5,35.6,32.1,96,93,85,30.28,30.15,6,1,11,0.55
2013-2-23,47.0,42.7,38.3,46.2,41.9,37.3,97,97,96,30.17,29.82,1,0,3,0.47
2013-2-24,61.7,47.1,38.5,40.5,31.7,17.4,97,61,19,30.00,29.85,4,2,11,0.01
2013-2-25,47.1,41.5,35.3,34.7,27.1,22.8,93,58,42,30.10,29.92,5,2,11,0.07
2013-2-26,42.3,39.9,36.6,40.6,37.8,33.0,96,92,80,29.95,29.54,8,2,16,1.70
2013-2-27,53.1,42.3,35.5,36.0,32.1,28.8,88,69,42,29.85,29.69,4,2,13,0.02
2013-2-28,42.0,35.4,30.8,32.8,25.4,22.0,79,67,55,30.02,29.74,5,2,15,0.00
2013-3-1,45.2,35.5,30.2,29.3,25.4,23.1,78,67,51,30.06,29.95,4,2,14,0.00
2013-3-2,39.9,33.5,27.6,28.7,25.1,16.9,92,72,48,30.07,29.93,4,1,11,0.02
2013-3-3,40.1,29.4,23.8,17.0,14.5,11.6,67,54,37,30.21,30.05,6,3,15,0.00
2013-3-4,53.6,37.5,21.7,33.0,20.0,11.4,75,52,27,30.37,30.18,3,1,7,0.00
2013-3-5,48.9,42.0,32.9,46.6,36.1,25.9,96,80,60,30.19,29.60,6,1,16,0.60
2013-3-6,36.7,31.3,25.9,26.4,22.6,18.4,84,70,59,30.32,29.74,6,3,18,0.00
2013-3-7,58.1,40.1,28.5,34.1,26.4,22.2,80,60,34,30.43,30.25,7,2,19,0.01
2013-3-8,59.1,43.2,28.2,30.8,24.8,5.6,83,53,16,30.38,30.24,4,1,9,0.00
2013-3-9,59.8,45.9,35.4,33.2,26.8,20.5,67,49,30,30.41,30.24,3,1,8,0.00
2013-3-10,60.6,52.4,43.4,37.6,32.4,28.1,62,47,34,30.28,30.09,4,1,9,0.00
2013-3-11,54.7,49.8,46.5,50.9,46.2,37.3,96,88,52,30.09,29.69,3,1,8,1.05
2013-3-12,62.0,50.2,37.6,51.2,36.4,12.1,97,65,18,29.98,29.62,7,2,14,0.17
2013-3-13,46.9,38.0,30.6,28.8,22.6,16.4,83,56,34,30.29,29.98,6,2,20,0.00
2013-3-14,52.1,36.9,25.8,20.6,14.1,-0.7,64,42,13,30.49,30.28,4,2,11,0.00
2013-3-15,68.7,50.2,32.6,41.7,31.3,10.9,78,51,29,30.34,29.88,5,1,21,0.00
2013-3-16,73.8,62.2,52.1,46.5,42.1,38.6,64,49,33,29.88,29.56,4,2,11,0.00
2013-3-17,69.0,59.0,50.0,48.5,44.6,41.2,76,60,42,29.78,29.63,6,1,10,0.00
2013-3-18,52.8,44.7,41.2,46.3,42.0,39.6,96,90,76,29.88,29.76,3,1,8,0.00
2013-3-19,58.9,46.8,37.5,45.3,33.4,16.3,97,65,25,30.06,29.84,4,1,11,0.00
2013-3-20,53.8,43.0,35.7,29.3,12.9,3.9,77,31,15,30.13,29.84,5,1,12,0.00
2013-3-21,42.8,33.6,25.7,29.2,10.3,0.5,78,39,25,30.08,29.81,4,2,18,0.00
2013-3-22,46.0,36.3,26.6,28.9,18.0,11.6,63,48,34,30.22,30.08,3,0,5,0.00
2013-3-23,52.3,43.7,38.1,47.1,40.1,28.1,96,88,62,30.14,29.81,3,0,8,0.00
2013-3-24,47.4,43.8,39.0,44.9,42.0,36.9,96,94,88,29.87,29.41,6,2,11,0.00
2013-3-25,38.6,32.3,28.0,36.5,24.1,20.0,92,72,60,30.10,29.49,7,3,18,0.01
2013-3-26,38.9,32.7,27.5,23.2,20.1,18.0,76,60,45,30.41,30.07,5,2,17,0.00
2013-3-27,52.4,37.6,27.5,23.1,19.8,16.1,71,51,25,30.48,30.32,3,1,12,0.00
2013-3-28,55.7,40.8,27.9,24.4,19.1,8.1,76,47,15,30.45,30.29,5,1,14,0.00
2013-3-29,55.9,42.9,34.1,37.0,26.6,18.9,77,54,33,30.45,30.26,4,2,13,0.00
2013-3-30,62.5,50.6,40.3,48.4,39.0,36.5,92,67,40,30.28,29.95,4,1,10,0.13
2013-3-31,62.8,54.2,49.4,54.0,50.6,47.8,96,89,65,29.95,29.67,3,0,8,0.67
2013-4-1,66.1,55.0,44.2,51.3,41.7,32.7,96,65,36,29.87,29.67,4,2,14,0.00
2013-4-2,62.8,47.6,36.3,36.0,26.5,13.5,82,49,19,30.09,29.86,4,1,11,0.00
2013-4-3,55.0,49.6,43.8,29.7,24.8,21.1,57,38,30,30.22,30.05,4,1,10,0.00
2013-4-4,49.3,40.3,34.5,38.4,32.9,25.3,96,77,39,30.20,29.98,5,2,11,0.42
2013-4-5,63.4,49.3,37.2,44.1,36.3,27.3,96,67,27,30.04,29.93,5,2,14,0.00
2013-4-6,64.8,53.0,41.4,38.7,33.6,29.0,74,50,28,30.17,30.03,4,1,9,0.00
2013-4-7,67.0,54.7,43.1,45.5,40.3,33.4,73,59,40,30.16,30.00,7,1,11,0.00
2013-4-8,71.2,60.6,50.4,53.0,48.4,44.0,83,65,45,30.02,29.89,6,1,10,0.00
2013-4-9,76.3,65.1,56.1,56.5,52.7,50.0,85,66,44,30.01,29.87,6,2,15,0.00
2013-4-10,80.6,68.1,58.7,57.9,53.9,51.5,83,63,39,29.89,29.65,5,1,8,0.00
2013-4-11,71.7,64.0,56.9,63.1,56.4,51.8,96,77,54,29.66,29.34,6,1,10,1.16
2013-4-12,67.9,60.7,51.3,59.3,46.8,32.1,96,65,28,29.64,29.32,5,2,14,0.53
2013-4-13,74.0,60.3,50.4,37.3,33.5,25.8,59,39,17,29.85,29.62,8,2,17,0.00
2013-4-14,63.6,56.3,51.1,50.2,40.7,32.2,92,58,33,29.89,29.76,4,1,14,0.15
2013-4-15,67.9,59.0,51.0,56.3,53.3,48.8,96,82,65,30.03,29.77,3,1,8,0.08
2013-4-16,73.7,63.8,57.1,59.7,57.1,54.6,95,80,60,30.11,29.97,3,0,6,0.00
2013-4-17,78.3,65.2,59.1,61.8,58.3,53.4,95,80,52,30.01,29.84,4,1,9,0.21
2013-4-18,72.9,64.3,59.4,60.6,58.7,57.1,95,83,61,29.90,29.68,3,1,6,0.00
2013-4-19,64.3,57.8,43.6,61.7,53.9,34.1,97,87,61,29.75,29.42,4,2,11,0.97
2013-4-20,62.7,48.5,38.1,38.7,28.3,21.2,71,49,22,30.26,29.74,7,2,19,0.01
2013-4-21,61.7,52.1,43.6,37.1,31.5,25.6,73,47,32,30.39,30.25,4,2,9,0.00
2013-4-22,63.9,52.6,42.3,40.1,37.3,35.0,79,57,37,30.33,30.11,4,1,9,0.00
2013-4-23,67.7,54.7,41.9,46.7,37.8,27.3,78,54,37,30.21,30.00,3,1,7,0.00
2013-4-24,67.5,58.1,51.3,57.7,51.4,45.4,93,79,62,30.03,29.85,3,1,7,0.04
2013-4-25,71.2,56.6,43.0,53.5,31.4,6.0,93,50,9,30.21,29.90,4,2,9,0.00
2013-4-26,67.2,56.4,46.3,46.8,33.1,23.6,77,43,28,30.34,30.19,4,1,8,0.00
2013-4-27,54.4,51.3,47.6,50.8,48.4,44.2,96,90,71,30.27,30.14,3,0,9,0.35
2013-4-28,53.4,50.8,47.3,52.6,49.4,45.9,97,95,87,30.19,29.95,2,0,4,1.94
2013-4-29,68.9,57.7,50.9,58.1,53.1,49.9,98,86,60,29.98,29.74,2,0,6,0.03
2013-4-30,73.0,60.9,51.6,57.1,53.5,50.3,97,79,49,29.95,29.80,2,0,5,0.01
2013-5-1,65.8,60.0,55.0,56.6,52.5,51.1,89,77,60,30.07,29.93,3,1,8,0.00
2013-5-2,61.2,56.5,54.3,55.1,52.6,50.6,92,87,78,30.10,30.03,3,2,8,0.00
2013-5-3,56.9,53.9,51.9,52.7,50.8,48.2,94,90,74,30.05,29.92,5,2,13,0.09
2013-5-4,53.8,49.8,45.9,50.2,46.7,41.7,94,89,73,29.92,29.77,6,3,17,0.89
2013-5-5,51.4,49.7,48.0,50.0,48.0,46.1,95,94,93,29.84,29.66,5,3,15,1.07
2013-5-6,55.8,48.0,44.8,49.6,45.5,43.7,96,91,67,29.85,29.65,2,0,6,0.22
2013-5-7,64.1,53.0,43.7,53.5,46.4,42.4,96,80,50,29.88,29.75,2,0,9,0.00
2013-5-8,67.7,57.1,48.1,55.3,50.6,45.1,93,80,57,29.90,29.79,3,0,7,0.01
2013-5-9,78.0,63.1,51.5,56.8,52.5,47.7,95,72,38,29.94,29.81,3,1,5,0.00
2013-5-10,73.5,64.9,57.1,60.1,56.7,52.8,92,76,57,29.89,29.68,3,0,7,0.01
2013-5-11,72.0,61.6,55.8,62.5,57.4,54.1,95,87,65,29.73,29.58,2,0,5,0.07
2013-5-12,67.3,56.6,43.7,55.3,40.2,21.0,95,59,24,29.95,29.64,3,1,9,0.00
2013-5-13,65.8,51.1,39.6,35.4,30.1,14.3,77,49,15,30.16,29.94,3,1,11,0.00
2013-5-14,73.9,57.0,42.2,52.4,41.7,33.2,75,58,39,30.22,29.98,2,0,7,0.00
2013-5-15,85.8,70.6,57.3,57.0,52.5,45.8,80,55,27,29.99,29.68,3,1,9,0.00
2013-5-16,78.7,66.4,58.5,59.5,55.2,52.1,82,68,44,29.76,29.67,2,0,6,0.00
2013-5-17,76.8,66.0,60.4,61.4,57.0,55.3,86,74,52,29.83,29.73,2,0,4,0.00
2013-5-18,64.5,62.5,60.6,63.3,60.9,56.8,97,94,82,29.85,29.77,0,0,4,0.25
2013-5-19,67.8,63.7,60.6,65.3,62.4,59.4,98,96,88,29.88,29.72,1,0,2,0.08
2013-5-20,80.2,66.3,57.5,69.2,63.1,56.7,98,90,66,29.88,29.74,1,0,5,0.41
2013-5-21,83.0,69.0,59.9,70.8,63.9,58.2,98,86,54,29.76,29.59,2,0,7,1.99
2013-5-22,77.1,66.6,60.8,70.5,64.2,59.9,98,92,65,29.71,29.55,2,0,4,0.22
2013-5-23,78.5,67.3,60.4,64.5,59.1,51.3,98,78,43,29.65,29.56,2,0,10,0.33
2013-5-24,71.0,61.7,49.7,53.7,44.2,28.0,88,56,24,30.05,29.63,3,1,11,0.00
2013-5-25,74.0,59.8,46.1,52.6,41.0,33.4,76,53,27,30.20,30.01,3,1,5,0.00
2013-5-26,77.5,60.9,53.1,53.9,45.1,37.6,80,58,25,30.15,29.99,2,0,6,0.00
2013-5-27,77.3,65.5,54.8,60.8,54.8,50.4,86,70,48,30.09,29.91,1,0,4,0.00
2013-5-28,77.8,68.5,61.6,63.2,59.6,56.4,86,74,57,29.96,29.86,1,0,4,0.00
2013-5-29,78.2,67.6,58.0,64.1,60.3,56.0,95,79,58,29.98,29.89,1,0,3,0.00
2013-5-30,77.1,68.7,63.2,63.3,60.7,58.0,89,77,56,30.00,29.88,1,0,4,0.00
2013-5-31,77.6,69.2,64.5,65.4,62.4,59.7,91,80,61,29.96,29.80,1,0,3,0.00
2013-6-1,75.8,68.7,63.2,67.5,64.1,61.4,96,86,67,29.84,29.71,1,0,3,0.08
2013-6-2,72.8,66.6,63.7,69.8,65.4,62.8,98,96,90,29.74,29.55,1,0,3,0.83
2013-6-3,80.6,68.4,62.1,68.7,63.4,59.7,98,86,52,29.66,29.52,2,0,8,0.00
2013-6-4,80.7,69.7,60.0,67.5,61.9,57.2,91,77,58,29.75,29.65,2,1,4,0.00
2013-6-5,77.8,69.6,61.9,68.6,64.6,60.5,96,85,69,29.74,29.56,2,0,6,1.08
2013-6-6,70.7,65.7,60.9,67.6,64.0,59.8,98,94,88,29.63,29.45,0,0,2,0.24
2013-6-7,82.0,68.4,62.4,70.9,64.8,60.3,97,89,59,29.50,29.32,3,0,8,0.35
2013-6-8,79.3,67.6,59.9,68.6,62.6,58.6,96,85,55,29.82,29.49,2,0,7,0.01
2013-6-9,78.1,68.8,64.1,69.9,65.8,62.3,97,91,74,29.84,29.69,2,0,3,1.23
2013-6-10,74.2,67.1,62.0,68.4,64.9,60.8,98,93,67,29.72,29.61,2,0,5,1.39
2013-6-11,84.0,71.8,63.4,71.9,66.5,62.5,98,85,55,29.73,29.60,2,0,6,0.19
2013-6-12,85.2,71.4,64.2,77.1,67.9,61.8,97,89,71,29.71,29.58,1,0,6,0.68
2013-6-13,85.7,73.6,65.0,73.5,67.8,63.8,98,84,53,29.61,29.27,3,1,15,0.17
2013-6-14,81.3,69.3,60.3,65.1,58.9,53.0,97,72,42,29.75,29.41,3,1,15,0.00
2013-6-15,78.8,68.4,59.3,64.7,58.7,52.6,85,72,55,29.87,29.75,1,0,5,0.00
2013-6-16,81.8,70.1,59.5,69.0,62.6,56.6,92,78,55,29.90,29.69,1,0,3,0.01
2013-6-17,80.0,70.0,65.2,71.5,66.9,64.2,97,90,66,29.75,29.59,1,0,6,0.32
2013-6-18,78.1,68.9,65.1,70.7,66.1,63.6,98,91,70,29.63,29.45,2,0,11,0.03
2013-6-19,76.1,69.4,63.4,67.9,63.8,60.3,92,83,70,29.82,29.56,2,0,6,0.00
2013-6-20,76.3,68.1,62.8,67.1,63.3,60.6,93,85,65,29.95,29.81,2,0,4,0.00
2013-6-21,77.3,69.7,64.9,67.1,63.1,60.6,88,80,64,30.00,29.87,2,0,4,0.00
2013-6-22,81.2,70.0,62.6,65.5,61.5,58.9,90,76,53,29.98,29.82,1,0,4,0.00
2013-6-23,79.8,71.3,63.2,69.1,64.5,58.9,93,80,62,29.93,29.78,1,0,3,0.00
2013-6-24,81.3,72.1,66.5,70.8,67.6,65.2,97,86,67,29.89,29.74,1,0,3,0.23
2013-6-25,80.7,70.0,63.5,72.3,66.4,62.6,98,89,67,29.85,29.70,1,0,5,0.01
2013-6-26,82.4,70.3,64.9,72.6,67.0,62.8,96,90,65,29.74,29.57,2,0,8,0.15
2013-6-27,82.5,73.6,67.6,73.4,69.2,66.2,98,87,68,29.65,29.36,2,0,7,0.02
2013-6-28,87.7,74.3,66.5,72.1,66.9,64.1,94,79,49,29.44,29.20,2,0,8,0.02
2013-6-29,83.6,72.5,63.8,67.0,61.5,54.5,94,71,41,29.33,29.21,3,0,18,0.00
2013-6-30,80.2,69.1,62.5,68.5,61.7,57.6,96,78,55,29.46,29.32,1,0,3,0.29
2013-7-1,77.5,67.6,63.5,69.3,65.5,62.3,97,93,71,29.65,29.42,3,0,9,0.82
2013-7-2,78.8,69.5,63.9,71.2,66.6,63.0,98,91,71,29.81,29.62,1,0,4,0.26
2013-7-3,70.6,66.6,62.6,70.0,65.7,61.7,98,97,93,29.95,29.77,2,0,6,0.87
2013-7-4,70.3,65.9,63.3,69.7,65.2,62.7,98,98,97,29.97,29.87,2,0,6,1.29
2013-7-5,75.6,68.5,65.4,70.6,66.7,64.8,99,94,76,29.99,29.88,1,0,5,1.26
2013-7-6,75.0,68.1,65.4,71.6,67.1,64.5,98,97,86,29.92,29.78,1,0,4,0.66
2013-7-7,76.4,70.1,67.2,72.0,68.3,66.4,98,94,77,29.87,29.78,1,0,3,0.10
2013-7-8,82.8,71.9,65.9,74.5,68.7,65.0,98,90,66,29.89,29.77,2,0,7,0.01
2013-7-9,81.3,72.0,67.3,75.4,70.1,66.7,98,94,71,29.84,29.71,2,0,4,0.02
2013-7-10,81.4,72.5,67.5,74.9,70.1,66.9,98,92,76,29.80,29.59,2,0,4,0.05
2013-7-11,75.2,70.1,65.6,73.0,68.9,64.4,98,96,91,29.62,29.49,1,0,2,0.03
2013-7-12,80.2,69.3,64.8,74.2,67.5,63.6,99,94,75,29.59,29.51,2,0,5,0.03
2013-7-13,73.0,67.6,63.7,67.5,64.7,61.9,97,91,81,29.81,29.67,3,1,7,0.03
2013-7-14,72.8,69.2,67.4,69.9,67.5,65.5,97,94,87,30.00,29.79,3,1,7,0.03
2013-7-15,79.0,72.0,67.0,70.7,68.0,66.0,98,88,72,30.06,29.94,2,1,6,0.02
2013-7-16,83.7,74.4,67.1,73.6,69.4,66.2,97,85,67,30.03,29.89,1,0,3,0.03
2013-7-17,88.0,72.7,66.0,75.3,68.5,64.0,98,88,57,29.96,29.79,5,1,9,0.02
2013-7-18,81.8,69.8,64.4,74.9,67.4,63.4,98,93,72,29.93,29.77,2,0,5,0.02
2013-7-19,83.9,75.0,68.3,74.4,69.9,66.8,97,85,64,29.76,29.63,1,0,5,0.02
2013-7-20,82.2,71.7,67.9,73.6,69.0,66.6,98,91,70,29.71,29.58,2,0,4,0.01
2013-7-21,84.3,72.4,67.3,73.2,68.4,66.2,97,88,62,29.68,29.51,2,0,7,0.01
2013-7-22,81.7,72.2,66.2,72.5,68.0,65.3,97,88,64,29.66,29.48,2,0,7,0.02
2013-7-23,84.3,71.3,62.6,71.8,66.0,61.7,98,85,60,29.57,29.42,2,0,8,0.01
2013-7-24,82.4,71.8,66.1,70.6,66.9,64.0,97,85,61,29.48,29.38,1,0,6,0.01
2013-7-25,81.1,70.6,63.8,70.9,65.7,62.2,97,86,66,29.69,29.47,2,0,5,0.01
2013-7-26,76.3,69.5,63.2,72.1,66.7,61.3,97,91,78,29.78,29.67,1,0,2,0.01
2013-7-27,76.5,70.1,66.4,71.1,67.7,65.0,98,93,73,29.70,29.54,1,0,3,0.38
2013-7-28,81.9,69.5,62.9,69.9,64.8,59.4,98,86,57,29.73,29.57,1,0,4,0.00
2013-7-29,81.5,69.2,61.8,68.0,61.8,53.2,93,79,42,29.90,29.71,2,0,5,0.00
2013-7-30,82.5,71.0,62.0,71.7,63.7,56.0,90,79,58,29.95,29.82,0,0,3,0.00
2013-7-31,75.0,71.0,67.9,69.7,67.8,66.0,96,90,76,29.84,29.59,1,0,3,0.02
2013-8-1,83.2,72.4,66.8,72.8,68.5,64.3,97,88,65,29.65,29.50,1,0,5,0.01
2013-8-2,81.4,72.2,65.4,71.7,66.8,62.2,93,84,66,29.70,29.58,1,0,3,0.00
2013-8-3,80.2,72.2,66.2,71.2,66.2,61.8,93,82,63,29.70,29.61,1,0,4,0.00
2013-8-4,82.6,73.9,68.4,69.2,65.1,59.8,88,75,57,29.68,29.58,2,1,9,0.00
2013-8-5,80.0,71.6,65.4,70.9,65.1,60.0,91,80,67,29.73,29.62,1,0,4,0.00
2013-8-6,80.5,72.7,68.3,72.8,68.7,65.7,96,88,66,29.69,29.57,1,0,4,0.02
2013-8-7,71.2,69.5,68.1,70.3,68.5,66.9,98,97,94,29.72,29.64,1,0,1,0.51
2013-8-8,75.8,70.7,68.3,73.0,69.5,67.4,98,96,88,29.76,29.66,1,0,3,0.03
2013-8-9,80.5,72.6,68.6,74.2,70.8,67.7,98,94,71,29.76,29.67,1,0,7,0.08
2013-8-10,81.6,72.4,67.0,76.3,70.5,66.0,98,94,74,29.80,29.68,2,0,10,0.95
2013-8-11,84.7,72.6,66.9,75.9,69.9,66.0,98,92,65,29.84,29.71,1,0,5,0.03
2013-8-12,85.2,73.9,68.0,75.3,69.8,66.8,97,88,58,29.76,29.58,1,0,5,0.00
2013-8-13,81.3,72.4,67.1,72.7,68.5,64.9,97,88,67,29.63,29.45,1,0,7,0.05
2013-8-14,77.0,69.7,63.3,67.7,65.4,61.4,95,87,71,29.75,29.51,1,0,4,0.25
2013-8-15,66.9,62.4,58.2,61.9,58.5,56.0,97,87,75,29.91,29.73,2,0,8,0.00
2013-8-16,68.0,62.3,58.6,60.9,57.4,54.4,93,84,76,29.95,29.85,2,0,5,0.04
2013-8-17,63.9,61.5,59.1,61.6,58.6,55.0,97,91,77,29.99,29.89,2,0,7,0.36
2013-8-18,69.5,64.3,60.8,67.0,63.2,59.9,98,96,89,30.04,29.91,1,0,4,0.38
2013-8-19,69.5,66.0,63.4,68.0,65.1,62.8,98,97,94,29.98,29.83,1,0,3,1.28
2013-8-20,74.6,68.2,63.1,70.3,66.4,62.4,99,94,83,29.95,29.84,0,0,3,0.00
2013-8-21,69.7,67.7,66.4,68.8,66.8,65.5,98,97,96,29.99,29.86,2,0,6,0.57
2013-8-22,77.8,69.5,65.0,72.7,67.9,64.4,98,95,77,29.93,29.74,1,0,4,0.10
2013-8-23,83.2,71.1,65.0,72.2,66.8,63.8,98,87,57,29.79,29.63,2,0,6,0.44
2013-8-24,75.7,67.8,62.6,69.2,64.3,58.8,98,89,72,30.05,29.73,1,0,4,0.01
2013-8-25,73.7,66.4,60.0,64.0,59.7,55.0,89,79,67,30.18,30.04,2,0,6,0.00
2013-8-26,75.8,65.9,57.8,68.1,61.7,56.4,96,87,67,30.12,29.90,1,0,4,0.00
2013-8-27,81.5,69.0,60.5,71.0,64.3,58.8,97,86,59,29.94,29.73,2,0,6,0.00
2013-8-28,83.1,72.7,66.4,72.8,67.4,64.0,95,84,63,29.76,29.59,2,0,5,0.00
2013-8-29,85.3,73.5,65.6,75.1,68.8,64.4,97,86,64,29.64,29.51,2,0,6,0.00
2013-8-30,78.1,73.0,70.3,72.1,69.5,67.7,96,89,79,29.67,29.56,2,0,4,0.00
2013-8-31,84.8,73.0,67.7,73.9,69.9,66.8,97,91,65,29.61,29.50,2,0,6,0.18
2013-9-1,80.2,71.8,67.2,74.6,69.2,66.6,98,92,73,29.57,29.43,2,0,5,0.12
2013-9-2,79.7,71.6,66.3,73.2,68.4,65.3,97,90,75,29.59,29.45,3,0,5,0.00
2013-9-3,80.8,70.6,64.1,71.9,66.3,62.3,95,87,67,29.67,29.48,2,0,14,0.03
2013-9-4,79.5,70.0,63.9,70.5,65.5,61.8,95,86,66,29.81,29.65,0,0,2,0.00
2013-9-5,82.6,71.1,65.0,71.0,66.0,60.2,96,85,49,29.82,29.72,2,0,3,0.00
2013-9-6,76.3,67.8,62.2,66.1,62.7,59.2,93,85,65,29.89,29.76,2,0,4,0.00
2013-9-7,77.6,68.3,60.8,69.8,63.7,59.1,96,86,69,29.88,29.69,1,0,3,0.00
2013-9-8,82.0,70.6,62.7,69.3,64.6,60.1,96,83,50,29.73,29.59,2,0,6,0.00
2013-9-9,80.0,71.3,65.0,69.7,65.8,62.8,94,84,65,29.79,29.67,1,0,3,0.00
2013-9-10,80.5,73.4,66.2,71.4,67.6,63.8,93,83,68,29.95,29.83,1,0,3,0.00
2013-9-11,82.5,73.9,65.8,70.0,67.0,64.0,95,80,57,29.94,29.78,1,0,3,0.00
2013-9-12,80.0,71.2,68.0,69.8,67.2,64.7,93,87,70,29.79,29.54,3,0,9,0.14
2013-9-13,76.3,68.3,62.2,64.9,59.6,50.9,95,75,54,29.59,29.48,3,1,9,0.00
2013-9-14,71.3,61.4,52.9,58.4,53.6,49.4,89,77,56,29.91,29.59,2,0,6,0.00
2013-9-15,73.5,65.4,59.5,64.9,59.4,54.9,95,81,69,29.99,29.87,1,0,4,0.00
2013-9-16,79.1,68.2,61.8,66.2,62.2,58.3,96,83,55,29.91,29.77,1,0,4,0.00
2013-9-17,69.0,64.1,60.9,62.9,56.8,53.0,90,77,66,30.04,29.86,2,1,7,0.00
2013-9-18,66.5,62.2,58.3,61.1,56.2,52.6,94,81,72,30.09,29.94,2,0,6,0.00
2013-9-19,76.9,64.3,57.0,68.6,61.3,55.9,97,91,67,30.01,29.85,1,0,4,0.21
2013-9-20,77.5,67.2,61.2,68.7,63.6,60.1,97,89,66,29.86,29.62,1,0,4,0.00
2013-9-21,65.2,63.6,59.4,64.3,62.4,58.5,98,96,94,29.66,29.32,2,0,6,1.15
2013-9-22,72.9,62.1,54.3,62.4,57.0,52.9,97,85,56,29.67,29.46,2,0,6,0.00
2013-9-23,69.6,62.5,58.2,59.8,57.1,53.6,94,83,66,29.84,29.67,1,0,4,0.00
2013-9-24,65.2,61.1,56.2,61.0,58.4,54.6,96,91,82,29.85,29.71,0,0,2,0.01
2013-9-25,61.0,59.4,57.3,59.9,58.5,56.2,98,97,95,29.70,29.60,1,0,4,0.95
2013-9-26,68.6,61.4,56.4,64.2,59.3,55.6,98,93,81,29.84,29.67,1,0,3,0.01
2013-9-27,70.8,60.9,53.0,61.8,56.8,51.3,96,87,69,29.99,29.84,1,0,3,0.00
2013-9-28,66.3,59.7,54.4,58.4,55.1,52.4,94,85,70,30.07,29.95,2,0,3,0.00
2013-9-29,64.9,58.1,50.7,58.6,53.6,48.7,95,86,72,30.02,29.86,1,0,4,0.00
2013-9-30,67.9,59.8,52.9,60.9,55.9,51.5,96,88,66,29.95,29.81,1,0,3,0.00
2013-10-1,72.1,60.6,54.2,63.0,56.6,52.5,96,87,61,30.00,29.86,1,0,6,0.00
2013-10-2,75.3,63.7,57.3,65.6,59.5,55.9,95,87,63,29.98,29.85,2,0,9,0.00
2013-10-3,74.8,65.7,60.5,65.4,61.1,58.5,94,86,62,29.92,29.81,2,0,5,0.00
2013-10-4,77.6,65.3,58.7,64.8,60.2,56.8,94,85,57,29.95,29.84,1,0,3,0.00
2013-10-5,78.5,65.7,60.3,67.4,61.6,58.3,95,87,65,29.90,29.77,1,0,2,0.00
2013-10-6,73.2,66.1,61.3,65.7,62.5,59.6,96,89,72,29.79,29.59,1,0,3,0.55
2013-10-7,72.5,64.3,58.3,64.7,59.4,48.9,98,85,49,29.73,29.50,2,0,8,0.93
2013-10-8,66.3,59.0,54.8,56.3,51.6,46.1,90,77,60,30.01,29.72,3,1,7,0.00
2013-10-9,65.8,56.1,47.3,55.2,49.6,44.0,95,80,59,30.11,29.99,2,0,4,0.00
2013-10-10,70.1,58.4,50.3,56.9,52.3,47.8,96,81,51,30.03,29.84,2,0,10,0.00
2013-10-11,71.9,60.7,52.5,56.6,52.9,49.4,91,77,49,29.87,29.74,2,1,8,0.00
2013-10-12,72.6,62.0,54.2,63.8,56.0,51.4,91,82,58,29.91,29.78,2,0,5,0.00
2013-10-13,69.5,62.6,56.9,64.2,58.9,54.3,96,88,72,30.01,29.90,1,0,3,0.12
2013-10-14,68.2,61.8,56.8,62.3,59.0,55.8,98,91,74,30.02,29.91,2,0,5,0.01
2013-10-15,62.0,59.0,54.9,58.0,56.2,53.5,96,90,83,29.98,29.86,2,0,4,0.00
2013-10-16,65.2,58.4,53.6,59.6,55.7,52.5,96,91,77,29.93,29.79,0,0,3,0.00
2013-10-17,63.5,60.2,57.0,62.9,59.3,56.0,98,97,95,29.80,29.64,1,0,2,0.23
2013-10-18,64.1,56.5,50.6,57.3,53.4,49.2,96,90,69,29.85,29.69,2,0,7,0.01
2013-10-19,59.4,53.7,47.7,54.6,50.5,46.3,97,89,66,29.83,29.71,1,0,7,0.01
2013-10-20,60.7,49.8,42.4,48.4,43.3,38.3,96,80,49,30.04,29.83,3,0,4,0.00
2013-10-21,62.2,52.8,45.4,54.5,48.7,43.1,95,87,67,30.10,29.92,2,0,5,0.00
2013-10-22,65.9,55.8,49.3,55.2,50.9,46.1,96,84,56,29.95,29.65,1,0,3,0.01
2013-10-23,54.2,47.8,38.5,46.9,38.0,29.5,91,70,50,30.00,29.60,3,1,14,0.00
2013-10-24,54.9,43.2,34.4,40.3,34.0,29.1,91,71,49,30.23,30.00,2,0,9,0.00
2013-10-25,50.2,39.7,32.9,36.3,28.5,18.2,92,67,28,30.48,30.23,4,1,9,0.00
2013-10-26,53.6,41.3,29.9,40.8,31.6,26.5,89,70,45,30.47,30.18,2,0,5,0.00
2013-10-27,64.0,52.8,42.0,52.1,45.8,36.6,91,78,61,30.18,30.00,2,0,9,0.00
2013-10-28,61.7,54.7,50.2,56.2,51.4,48.4,96,89,69,30.19,30.03,1,0,6,0.12
2013-10-29,64.8,54.8,47.6,55.6,50.6,46.2,96,87,62,30.29,30.16,2,0,6,0.01
2013-10-30,72.2,61.7,53.9,60.0,55.6,52.3,96,82,56,30.20,29.99,2,0,7,0.00
2013-10-31,62.9,59.1,55.8,59.9,55.5,52.1,97,88,74,30.02,29.67,1,0,3,0.08
2013-11-1,71.0,60.4,50.1,60.6,54.2,40.8,98,82,36,29.67,29.39,2,0,7,0.56
2013-11-2,62.2,50.2,41.3,46.7,41.3,36.9,93,73,45,29.96,29.54,3,0,8,0.00
2013-11-3,58.7,44.6,37.0,41.2,37.0,34.5,93,76,45,30.38,29.94,1,0,6,0.00
2013-11-4,53.6,45.8,41.3,37.8,34.8,32.3,79,66,47,30.53,30.38,3,1,6,0.00
2013-11-5,58.6,46.8,36.6,43.8,33.7,25.4,87,63,29,30.61,30.44,2,0,5,0.00
2013-11-6,63.7,55.1,51.6,55.1,51.5,44.7,95,88,71,30.44,30.02,2,0,6,0.09
2013-11-7,64.8,54.2,41.5,57.6,43.7,22.6,97,71,28,30.06,29.83,4,1,10,0.06
2013-11-8,56.5,43.8,33.1,31.9,24.8,8.7,76,52,15,30.37,30.06,4,1,10,0.00
2013-11-9,52.7,45.2,36.4,37.2,30.2,22.4,76,56,40,30.45,30.26,2,0,8,0.00
2013-11-10,69.3,54.7,45.0,35.5,30.3,22.6,65,41,23,30.26,30.10,3,1,13,0.00
2013-11-11,58.4,47.4,40.0,35.9,31.8,27.8,72,56,34,30.29,30.12,3,0,7,0.00
2013-11-12,57.6,43.9,27.4,39.2,28.2,12.5,67,54,38,30.52,30.05,5,2,16,0.00
2013-11-13,50.0,34.0,24.6,18.8,11.0,-1.1,60,41,17,30.76,30.50,4,1,10,0.00
2013-11-14,55.7,39.5,28.7,23.2,17.8,11.0,64,44,21,30.71,30.47,2,0,7,0.00
2013-11-15,49.2,44.8,36.1,47.7,36.8,20.0,97,76,43,30.49,30.23,0,0,2,0.31
2013-11-16,54.5,51.5,48.5,53.1,50.6,47.7,98,97,94,30.24,30.12,1,0,6,0.04
2013-11-17,58.2,55.7,54.1,57.5,54.7,52.6,98,96,93,30.14,29.75,1,0,3,0.89
2013-11-18,68.8,57.7,46.7,59.4,44.2,23.9,98,64,23,29.84,29.68,4,1,17,0.01
2013-11-19,53.6,45.7,40.5,34.5,29.0,23.4,70,52,39,30.25,29.80,6,2,15,0.00
2013-11-20,48.3,42.9,37.0,30.0,26.9,23.5,65,53,41,30.50,30.24,5,2,11,0.00
2013-11-21,50.9,47.2,43.0,49.0,44.2,33.1,97,90,65,30.51,30.40,3,0,10,0.14
2013-11-22,56.8,53.4,48.8,56.2,52.8,48.0,98,98,97,30.41,30.03,1,0,2,0.07
2013-11-23,56.2,49.7,35.2,55.6,39.4,8.9,98,72,24,30.13,29.96,6,2,18,0.00
2013-11-24,43.2,32.4,26.0,20.6,13.9,2.9,67,48,19,30.73,30.12,6,1,13,0.00
2013-11-25,39.2,31.6,24.1,27.4,9.9,2.5,86,41,24,30.79,30.49,3,1,7,0.00
2013-11-26,47.8,43.2,31.6,46.2,41.7,27.6,97,95,85,30.49,29.54,5,1,12,0.70
2013-11-27,46.8,33.7,24.0,45.6,26.5,14.9,96,75,58,30.36,29.45,8,3,28,0.10
2013-11-28,47.1,31.4,22.4,27.1,19.6,13.7,82,63,32,30.74,30.36,3,1,10,0.00
2013-11-29,55.1,39.8,29.0,29.2,24.7,19.7,83,58,28,30.75,30.63,3,1,7,0.00
2013-11-30,46.3,36.6,28.0,27.8,24.5,21.7,84,63,40,30.73,30.52,3,1,8,0.00
2013-12-1,53.0,42.4,33.7,39.6,31.9,24.5,81,67,54,30.52,30.03,2,0,5,0.06
2013-12-2,53.4,46.0,38.7,45.2,39.5,29.9,89,78,67,30.03,29.75,2,0,5,0.00
2013-12-3,49.8,48.2,46.2,49.0,47.0,43.7,97,96,90,29.88,29.77,1,0,3,0.12
2013-12-4,56.9,53.3,49.8,56.3,52.6,49.0,98,97,97,29.98,29.85,1,0,3,0.06
2013-12-5,64.1,60.0,56.8,63.8,59.4,56.1,99,98,98,29.95,29.78,3,0,7,1.51
2013-12-6,66.9,64.2,58.7,63.7,62.3,56.7,98,94,88,29.81,29.66,7,2,13,0.62
2013-12-7,60.4,54.5,45.0,57.6,50.8,40.8,95,88,73,30.25,29.72,4,1,10,0.01
2013-12-8,45.0,38.3,35.3,41.1,37.0,34.4,97,95,85,30.38,30.21,3,1,8,0.51
2013-12-9,51.5,43.6,35.2,51.0,43.1,34.3,98,98,97,30.36,30.01,2,0,4,1.28
2013-12-10,50.6,44.2,29.1,49.4,35.3,17.0,98,73,36,30.36,29.84,5,1,14,0.19
2013-12-11,52.5,37.3,27.0,25.0,19.9,8.3,78,53,20,30.62,30.36,3,0,8,0.00
2013-12-12,48.4,36.6,31.3,22.3,13.8,0.2,64,41,15,30.54,30.42,3,1,10,0.00
2013-12-13,47.6,37.9,27.1,26.9,19.3,13.0,64,48,30,30.54,30.37,2,0,5,0.00
2013-12-14,45.7,43.6,40.7,44.8,37.5,22.0,97,81,47,30.38,29.75,3,0,8,1.26
2013-12-15,46.0,39.4,31.8,45.4,32.5,25.0,98,77,58,30.21,29.71,5,2,19,0.02
2013-12-16,53.5,40.2,29.9,31.2,27.0,23.6,82,62,33,30.34,30.20,4,2,11,0.00
2013-12-17,60.4,47.2,35.9,35.0,30.8,19.9,78,54,32,30.26,29.99,5,2,18,0.00
2013-12-18,52.3,39.1,27.5,21.4,15.1,2.7,64,40,17,30.43,30.07,4,1,9,0.00
2013-12-19,63.3,47.0,38.6,30.7,23.2,14.6,59,41,20,30.43,30.26,3,0,8,0.00
2013-12-20,57.3,48.7,40.1,49.5,38.0,26.8,87,67,52,30.26,30.11,2,0,5,0.00
2013-12-21,61.1,56.2,53.0,60.5,54.5,49.0,98,94,84,30.12,29.82,3,0,6,0.51
2013-12-22,64.0,57.8,53.9,62.6,56.9,53.3,98,97,94,29.88,29.73,5,1,9,3.31
2013-12-23,54.1,49.6,38.4,53.5,45.7,33.6,98,87,75,30.12,29.82,4,1,13,0.05
2013-12-24,38.5,32.8,25.6,33.9,22.7,13.8,86,67,43,30.61,30.11,5,2,15,0.00
2013-12-25,37.3,27.7,20.6,22.2,18.9,15.7,88,71,44,30.79,30.59,3,0,6,0.00
2013-12-26,51.9,35.8,24.9,28.0,23.3,17.3,83,62,34,30.67,30.45,4,1,11,0.00
2013-12-27,49.5,37.2,30.0,28.3,25.1,22.7,79,63,37,30.64,30.50,2,0,5,0.00
2013-12-28,45.6,38.4,32.4,39.4,30.1,24.6,94,73,47,30.58,30.09,4,0,8,0.54
2013-12-29,57.4,46.2,41.0,47.6,41.2,31.8,97,84,63,30.10,29.78,4,1,12,0.78
2013-12-30,47.6,43.4,38.6,38.2,34.4,29.0,85,71,58,30.16,29.92,4,1,12,0.00
2013-12-31,44.9,37.7,32.4,30.2,23.1,15.5,81,57,33,30.50,30.15,4,1,11,0.00
2014-1-1,43.8,37.0,32.1,32.5,27.3,23.3,85,69,51,30.53,30.26,2,0,4,0.00
2014-1-2,46.1,38.1,20.9,44.4,33.5,9.9,96,84,61,30.26,29.67,5,1,19,0.15